Regional Weather Roundup
Issued by NWS

Home | Current Version | Previous Version | Graphics & Text | Print | Product List | Glossary On
Versions: 1 2 3 4 5 6 7 8 9 10 11 12 13 14 15 16 17 18 19 20 21 22 23 24 25 26 27
000
ASUS45 KPSR 170210
RWRAZ

ARIZONA HOURLY REGIONAL WEATHER ROUNDUP
NATIONAL WEATHER SERVICE PHOENIX AZ
700 PM MST MON JAN 16 2017

NOTE: FAIR INDICATES FEW OR NO CLOUDS BELOW 12,000 FEET WITH NO
SIGNIFICANT WEATHER AND/OR OBSTRUCTIONS TO VISIBILITY.

AZZ001>003-036-170300-
NORTHWEST ARIZONA

CITY           SKY/WX    TMP DP  RH WIND       PRES   REMARKS
KINGMAN        CLEAR     38  26  62 E8        30.07R WCI  32
$$

AZZ004>008-015-016-018-170300-
NORTH CENTRAL ARIZONA

CITY           SKY/WX    TMP DP  RH WIND       PRES   REMARKS
GRAND CANYON   MOCLDY    32  31  96 N3        30.06R
WILLIAMS       PTCLDY    34  30  86 CALM      30.05R
PRESCOTT       CLEAR     42  38  85 SE8       30.03R
FLAGSTAFF      MOCLDY    35  32  88 CALM      30.05R
PAYSON         CLOUDY    41  39  93 CALM      30.07S
PAGE           CLEAR     43  28  55 SE6       30.04R
$$

AZZ009>014-017-170300-
NORTHEAST ARIZONA

CITY           SKY/WX    TMP DP  RH WIND       PRES   REMARKS
WINSLOW        MOCLDY    38  33  82 W6        30.03R WCI  33
SAINT JOHNS    MOCLDY    41  35  79 W3        30.03R
SHOW LOW       LGT RAIN  32  32 100 CALM      30.06R
$$

AZZ023-170300-
GREATER PHOENIX AREA

CITY           SKY/WX    TMP DP  RH WIND       PRES   REMARKS
PHOENIX        PTCLDY    60  41  49 NW5       30.00S
BUCKEYE        CLEAR     54  45  71 E3        30.02R
GLENDALE       PTCLDY    57  43  58 CALM      30.03R
LUKE AFB       PTCLDY    56  45  65 CALM      30.00S
DEER VALLEY    MOCLDY    56  41  57 SW3       30.01R
SCOTTSDALE     PTCLDY    57  41  55 CALM      30.02S
MESA-GATEWAY   PTCLDY    54  45  71 SE5       30.03R
CHANDLER       CLEAR     57  45  62 N5        30.02R
$$

AZZ027-028-170300-
SOUTHWEST MARICOPA COUNTY AND PINAL COUNTY

CITY           SKY/WX    TMP DP  RH WIND       PRES   REMARKS
CASA GRANDE    CLEAR     54  45  71 CALM      30.03R
$$

AZZ503-504-507>509-170300-
SOUTHEAST ARIZONA

CITY           SKY/WX    TMP DP  RH WIND       PRES   REMARKS
TUCSON         MOCLDY    53  44  71 NW3       30.04R
DAVIS-MONTHAN  CLEAR     51  44  76 W5        30.02S
RYAN FIELD     CLEAR     52  45  76 NW6       30.04R
NOGALES        CLOUDY    47  38  71 NE9       30.01R
SIERRA VISTA   CLOUDY    44  39  81 W5        30.04R
DOUGLAS        CLOUDY    47  39  74 NE7       30.02S
SAFFORD        PTCLDY    46  42  86 N7        30.01R
$$

AZZ020-021-025-026-031-170300-
SOUTHWEST ARIZONA

CITY           SKY/WX    TMP DP  RH WIND       PRES   REMARKS
YUMA           CLEAR     60  32  34 N7        30.04R
$$

CAZ031-033-041-043-047-048-061-170300-
SOUTHERN CALIFORNIA

CITY           SKY/WX    TMP DP  RH WIND       PRES   REMARKS
DOWNTOWN L.A.  CLEAR     58  52  80 CALM      30.03R
L.A. AIRPORT   CLEAR     57  52  83 W14       30.04R
SAN DIEGO      PTCLDY    59  50  72 N8        30.04S
BURBANK        CLEAR     57  47  69 CALM      30.02R
ONTARIO        CLEAR     58  45  62 CALM      30.03R
RIVERSIDE      CLEAR     55  17  22 VRB6      30.03R
PALM SPRINGS   CLEAR     61  31  32 W7        30.06R
EL CENTRO NAS  CLEAR     59  43  55 W5        30.05R
IMPERIAL       CLEAR     58  45  62 CALM      30.03R
BLYTHE         PTCLDY    56  32  40 N5        30.05R
NEEDLES        CLEAR     55  23  28 NW7       30.07R
$$

NVZ020-UTZ003-170300-
SOUTHERN NEVADA-UTAH

CITY           SKY/WX    TMP DP  RH WIND       PRES   REMARKS
LAS VEGAS      CLEAR     52  14  22 N9        30.08R
SALT LAKE CITY PTCLDY    25  19  78 NW6       30.29R WCI  18
$$

NMZ009-TXZ055-170300-
NEW MEXICO-WEST TEXAS

CITY           SKY/WX    TMP DP  RH WIND       PRES   REMARKS
ALBUQUERQUE    CLOUDY    45  38  76 SW9       30.05R
EL PASO        CLOUDY    52  35  52 N3        30.02R
$$


........................KEY........................
SKY/WX - SKY CONDITION/WEATHER
TMP    - TEMPERATURE IN FAHRENHEIT
DP     - DEW POINT IN FAHRENHEIT
RH     - RELATIVE HUMIDITY IN PERCENT
WIND   - DIRECTION AND SPEED IN MILES PER HOUR (MPH)
VRB    - VARIABLE WIND DIRECTION
PRES   - MEAN SEA LEVEL PRESSURE IN INCHES OF MERCURY
         F - FALLING PRESSURE   R - RISING PRESSURE
         S - STEADY PRESSURE
VSB    - VISIBILITY IN MILES
HX     - HEAT INDEX IN FAHRENHEIT
WCI    - WIND CHILL INDEX IN FAHRENHEIT
TC     - TEMPERATURE IN CELSIUS WHICH IS ALSO KNOWN AS
         TEMPERATURE IN CENTIGRADE
AFB    - AIR FORCE BASE
         LUKE AFB IS LUKE AIR FORCE BASE
         DAVIS-MONTHAN IS DAVIS-MONTHAN AIR FORCE BASE
NAS    - NAVAL AIR STATION
         EL CENTRO NAS IS EL CENTRO NAVAL AIR STATION
N/A    - NOT AVAILABLE





USA.gov is the U.S. government's official web portal to all federal, state and local government web resources and services.